Location: Miss�
(46.9484°N, 0.1922°W)
Time: 01:58:45
(UTC+00:00)

ASTEX 1 - Pass Details

Date: 02 March 2021
Orbit: 720 x 743 km, 92.7° (Epoch: 12 April)

Event Time Altitude Azimuth Distance (km) Brightness Sun altitude
Rises 20:07:11 0° 4° (N) 3,151 6.8 -24.3°
Reaches altitude 10° 20:09:29 10° 4° (N) 2,223 6.0 -24.7°
Maximum altitude 20:14:24 82° 278° (W) 734 3.3 -25.5°
Enters shadow 20:16:02 43° 196° (SSW) 1,012 4.0 -25.8°
